Location: Newark
(50.8922°N, 11.6094°E)
Time: 06:42:04
(UTC+00:00)

N. Korean satellite - Pass Details

Date: 02 February 2020
Orbit: 456 x 505 km, 97.2° (Epoch: 27 February)

Event Time Altitude Azimuth Distance (km) Brightness Sun altitude
Rises 03:50:45 0° 32° (NNE) 2,570 10.8 -28.2°
Reaches altitude 10° 03:54:04 10° 65° (ENE) 1,693 10.2 -27.7°
Maximum altitude 03:55:28 12° 88° (E) 1,583 10.1 -27.5°
Drops below altitude 10° 03:56:52 10° 111° (ESE) 1,697 10.1 -27.3°
Sets 04:00:11 0° 144° (SE) 2,583 10.6 -26.8°
